Location: Unspecified
(48.8656°N, 0.0000°E)
Time: 08:43:16
(UTC+00:00)

Transit 2A Rocket - Pass Details

Date: 21 June 2019
Orbit: 588 x 915 km, 66.7° (Epoch: 17 July)

Event Time Altitude Azimuth Distance (km) Brightness Sun altitude
Rises 19:52:06 0° 317° (NW) 3,300 10.5 1.2°
Reaches altitude 10° 19:54:54 10° 306° (NW) 2,307 10.0 0.8°
Maximum altitude 19:59:17 27° 250° (WSW) 1,352 6.8 0.2°
Drops below altitude 10° 20:03:19 10° 192° (SSW) 2,113 7.1 -0.3°
Sets 20:05:47 0° 181° (S) 2,971 7.7 -0.6°
